Location: Cluj-Napoca
(46.7712°N, 23.6236°E)
Time: 07:17:29
(UTC+02:00)

ISS - Pass Details

Date: 26 January 2021
Orbit: 417 x 422 km, 51.6° (Epoch: 08 March)

Event Time Altitude Azimuth Distance (km) Brightness Sun altitude
Rises 19:48:52 0° 287° (WNW) 2,375 1.3 -25.4°
Reaches altitude 10° 19:51:06 10° 297° (WNW) 1,511 -0.1 -25.8°
Enters shadow 19:52:35 21° 313° (NW) 997 -1.4 -26.0°
